Regional Weather Roundup
Issued by NWS Green Bay, WI

Home | Current Version | Previous Version | Graphics & Text | Print | Product List | Glossary Off
Versions: 1 2 3 4 5 6 7 8 9 10 11 12 13 14 15 16 17 18 19 20 21 22 23 24 25 26 27 28 29 30 31 32 33 34 35 36 37 38 39 40 41 42 43 44 45 46 47 48 49 50

371
ASUS43 KGRB 181900
RWRGRB

NORTH-CENTRAL AND NORTHEAST WISCONSIN REGIONAL WEATHER ROUNDUP
NATIONAL WEATHER SERVICE GREEN BAY WI
100 PM CST MON DEC 18 2017

WIZ005-009-010>012-018-019-182000-
NORTH CENTRAL WISCONSIN

CITY           SKY/WX    TMP DP  RH WIND       PRES   REMARKS
IRONWOOD       CLOUDY    34  27  75 SW10      29.63F
MANITOWISH WTR NOT AVBL
ARBOR VITAE    NOT AVBL
EAGLE RIVER    CLOUDY    28  28 100 SW10      29.68F FOG
LAND O LAKES   CLOUDY    30  28  94 SW9       29.68F FOG
RHINELANDER    CLOUDY    28  28 100 SW8       29.70F FOG
PHILLIPS       CLOUDY    28  28 100 SW7       29.68F FOG
ANTIGO         CLOUDY    28  28 100 W7        29.73F FOG
TOMAHAWK       CLOUDY    28  26  92 CALM      29.71F FOG
MERRILL        CLOUDY    29  29  98 SW8       29.74F FOG
$$

WIZ013-073-182000-
NORTHEAST WISCONSIN

CITY           SKY/WX    TMP DP  RH WIND       PRES   REMARKS
IRON MOUNTAIN  CLOUDY    33  27  78 W7        29.69F
MARINETTE      CLOUDY    33  28  81 W8        29.77S
$$

WIZ017-030-035>037-045-182000-
CENTRAL WISCONSIN

CITY           SKY/WX    TMP DP  RH WIND       PRES   REMARKS
MEDFORD        NOT AVBL
WAUSAU         CLOUDY    28  27  96 SW10      29.74F FOG
MOSINEE        CLOUDY    28  28 100 S8        29.77F FOG
MARSHFIELD     CLOUDY    29  29 100 SW9       29.74F FOG
WISC RAPIDS    CLOUDY    30  27  88 SW9       29.80F
STEVENS POINT  NOT AVBL
WAUPACA        CLOUDY    34  30  86 SW8G16    29.79F FOG
SHAWANO        CLOUDY    33  29  86 SW9       29.78S FOG
CLINTONVILLE   NOT AVBL
WAUTOMA        CLOUDY    34  28  79 SW12      29.80F
$$

WIZ038-039-048-051-182000-
FOX VALLEY

CITY           SKY/WX    TMP DP  RH WIND       PRES   REMARKS
NWS GREEN BAY  CLOUDY    33  28  81 SW10      29.79F HAZE
APPLETON       CLOUDY    32  30  93 SW12G17   29.78F FOG
OSHKOSH        CLOUDY    34  29  82 SW8       29.80F HAZE
FOND DU LAC    CLOUDY    34  29  82 W13G18    29.82F
$$

WIZ022-050-052-182000-
EAST CENTRAL WISCONSIN

CITY           SKY/WX    TMP DP  RH WIND       PRES   REMARKS
EPHRAIM        CLOUDY    31  28  89 SW10G20   29.73F FOG
WASHINGTON ISL NOT AVBL
STURGEON BAY   CLOUDY    32  28  85 SW17      29.77F
MANITOWOC      CLOUDY    34  30  85 W10G22      N/A  FOG
SHEBOYGAN      CLOUDY    33  31  92 W16       29.81F FOG
$$

LMZ563-521-522-541>543-182000-
LAKESHORE

STATION/POSITION TIME  TEMP    WIND        PRES    VSBY  WAVE
                       AIR SEA DIR/SP/G                  HT/PER
                 (UTC) (F)     (DEG/KT/KT) (MB)    (MI)  (FT/S)
SHEBOYGAN LKSHOR 1800   34     240/ 11/ 15 1010.4F
KEWAUNEE LKSHORE 1830   32     240/  5/ 10 1008.3F
NORTHPORT PIER   1840   31      CALM  / 12 1007.5F
SISTER BAY LKSHO 1820   32     270/ 13/ 15   N/A
MENOMINEE LKSHOR 1830   32     260/ 11/ 18 1007.6F
$$




USA.gov is the U.S. government's official web portal to all federal, state and local government web resources and services.